Location: *
(46.0770°N, 1.6444°E)
Time: 18:31:39
(UTC+00:00)

Ariane Rocket - Pass Details

Date: 16 September 2019
Orbit: 761 x 769 km, 98.8° (Epoch: 21 October)

Event Time Altitude Azimuth Distance (km) Brightness Sun altitude
Rises 19:13:19 0° 178° (S) 3,210 6.0 -12.7°
Reaches altitude 10° 19:15:40 10° 184° (S) 2,290 5.3 -13.1°
Maximum altitude 19:20:34 51° 260° (W) 961 3.9 -13.9°
Drops below altitude 10° 19:25:31 10° 336° (NNW) 2,312 6.1 -14.7°
Sets 19:27:55 0° 342° (NNW) 3,244 6.8 -15.1°
